Regional Weather Roundup
Issued by NWS Wakefield, VA

Home | Current Version | Previous Version | Text Only | Print | Product List | Glossary On
Versions: 1 2 3 4 5 6 7 8 9 10 11 12 13 14 15 16 17 18 19 20 21 22 23 24 25 26 27 28 29 30 31 32 33 34 35 36 37 38 39 40 41 42 43 44 45 46 47 48 49 50
000
ASUS41 KAKQ 230010
RWRAKQ

REGIONAL WEATHER ROUNDUP
NATIONAL WEATHER SERVICE WAKEFIELD VA
700 PM EST MON DEC 22 2014

Note: "fair" indicates few or no clouds below 12,000 feet with no
significant weather and/or obstructions to visibility. * = Denotes
station may not report precipitation (e.g., rain,snow,etc.),
thunder or fog.

VAZ042-051-052>054-056-230100-
NORTHERN VIRGINIA

CITY           SKY/WX    TMP DP  RH WIND       PRES   REMARKS
WASH NATIONAL  LGT RAIN  37  34  87 N7        30.17R
DULLES         LGT RAIN  32  31  96 N8        30.17R FOG
FORT BELVOIR   RAIN      36  32  87 NW6       30.18R FOG
QUANTICO       LGT RAIN  36  32  85 N6        30.18R
FREDERICKSBRG* CLOUDY    36  36 100 N8        30.15R FOG
STAFFORD*      DRIZZLE   33  33 100 N7        30.20R
WARRENTON      DRIZZLE   35  35 100 N5        30.16S
CULPEPER*      DRIZZLE   36  34  93 N8        30.16F
MANASSAS*      CLOUDY    34  34 100 NW7       30.18  FOG
LEESBURG*      MIX PCPN  34  34 100 N7        30.20R
WINCHESTER     CLOUDY    32  30  93 CALM      30.17R FOG
FRONT ROYAL*   CLOUDY    32  32 100 NE3       30.15F
LURAY*         CLOUDY    34  34 100 NE5       30.13F FOG
$$

VAZ048-049-060>072-079>083-230100-
CENTRAL AND SOUTH CENTRAL VIRGINIA

CITY           SKY/WX    TMP DP  RH WIND       PRES   REMARKS
RICHMOND       CLOUDY    37  34  89 N8        30.10S FOG
CHESTERFIELD*  CLOUDY    36  25  64 N9        30.11S
PETERSBURG*    CLOUDY    38  37  97 N7        30.10S FOG
HANOVER        CLOUDY    35  34  96 VRB6      30.13S FOG
TAPPAHANNOCK*  CLOUDY    37  34  89 N3        30.12S FOG
QUINTON*       CLOUDY    37  36  98 N6        30.10S
CHARLOTTSVILLE LGT RAIN  34  33  96 N5        30.12F FOG
GORDONSVILLE*  CLOUDY    34  32  94 NE7       30.12F FOG
ORANGE*        CLOUDY    34  34 100 N9        30.14F FOG
LOUISA*        CLOUDY    34  34 100 N8        30.11S FOG
BUMPASS*       CLOUDY    33  32  95 N6        30.13R
FARMVILLE*     CLOUDY    37  37 100 N6        30.12S FOG
CREWE*         CLOUDY    35  33  94 NW5       30.11R
FORT PICKETT*  CLOUDY    35  34  98 N8        30.10R
CHASE CITY*    CLOUDY    37  37 100 NE5       30.09S
CLARKSVILLE*   CLOUDY    36  34  93 N5        30.09S
SOUTH HILL*    CLOUDY    36  35  96 N8        30.14R
LAWRENCEVILLE* CLOUDY    36  36  99 N5        30.08S
EMPORIA*       CLOUDY    37  36  93 NW10      30.09F FOG
$$

VAZ088>098-230100-
SOUTHEAST VIRGINIA

CITY           SKY/WX    TMP DP  RH WIND       PRES   REMARKS
NORFOLK        CLOUDY    46  44  93 N10       30.04R
VIRGINIA BEACH LGT RAIN  51  49  92 NW9       30.02R FOG
NORFOLK NAVAL  DRIZZLE   50  46  86 N14       30.06R FOG
WEST POINT*    CLOUDY    42  39  92 N6        30.11S
SALUDA*        CLOUDY    40  39  97 N10       30.09R
NEWPORT NEWS   LGT RAIN  46  43  89 N9        30.06R FOG
LANGLEY AFB    MIX PCPN  45  43  93 N13       30.06R FOG
FORT EUSTIS    DRIZZLE   43 N/A N/A N8        30.06R
WILLIAMSBURG*  CLOUDY    45  43  93 N6        30.09R VSB 1
HR EXEC AP*    CLOUDY    46  43  87 N5        30.06R
FRANKLIN*      CLOUDY    41 N/A N/A N7        30.05F
WAKEFIELD      LGT RAIN  40  38  93 N8        30.07S FOG
$$

VAZ020-022-025-037-045-230100-
WEST CENTRAL AND SOUTHWEST VIRGINIA

CITY           SKY/WX    TMP DP  RH WIND       PRES   REMARKS
STAUNTON*      CLOUDY    33  32  94 N5        30.13S FOG
WAYNESBORO*    CLOUDY    32  32  99 CALM      30.10S
HOT SPRINGS VA FOG       32  32 100 E8        29.97S VSB<1/4
LYNCHBURG      CLOUDY    35  34  96 NE10      30.10S FOG
DANVILLE       CLOUDY    36  34  92 N5        30.11R FOG
SOUTH BOSTON*  CLOUDY    35  34  96 N5        30.10S
MARTINSVILLE   CLOUDY    36  36 100 N5        30.12R FOG
ROANOKE        DRIZZLE   36  34  92 NE3       30.11R FOG
BLACKSBURG     CLOUDY    33  32  94 NE5       30.08R
DUBLIN*        CLOUDY    35  35 100 E6        30.06R FOG
MARION*        FOG       37  35  94 E13       30.01S VSB 1
HILLSVILLE*    FOG       35  35 100 E5        30.00F VSB 1/2
RICHLANDS*     MOCLDY    42  35  75 E3        29.91R
WISE*          MOCLDY    46  36  66 SE13G20   29.88S
ABINGDON*      PTCLDY    44  39  83 E16       29.92S
$$

MDZ021>025-VAZ099-100-230100-
SOUTHERN MARYLAND AND THE DELMARVA PENINSULA

CITY           SKY/WX    TMP DP  RH WIND       PRES   REMARKS
PATUXENT RIVER LGT RAIN  39  36  89 N8        30.12R FOG
BAY BRIDGE APT DRIZZLE   37  36  93 N9        30.15S
LEONARDTOWN    CLOUDY    36  36 100 CALM      30.15R
DOVER          LGT RAIN  42  42 100 NE9       30.13F
GEORGETOWN     CLOUDY    44  41  89 NE13      30.12F
EASTON         CLOUDY    39  39 100 N7        30.17S FOG
CAMBRIDGE      CLOUDY    41  37  87 N8        30.11R
SALISBURY      CLOUDY    47  43  86 NE8       30.10R
OCEAN CITY     CLOUDY    48  45  89 NE8       30.10S
WALLOPS ISLAND CLOUDY    48  47  96 NE14      30.09R
ACCOMACK*      CLOUDY    50  45  81 NE14      30.06S
$$

NCZ012>017-030>032-230100-
NORTH CENTRAL AND EASTERN NORTH CAROLINA

CITY           SKY/WX    TMP DP  RH WIND       PRES   REMARKS
ROANOKE RAPIDS CLOUDY    37  37 100 N8        30.08R FOG
RALEIGH        DRIZZLE   38  35  89 VRB6      30.07F FOG
ELIZABETH CITY CLOUDY    56  51  84 N10       30.00R
AHOSKIE*       CLOUDY    40  39  96 N9        30.06S FOG
EDENTON*       CLOUDY    49  48  99 NW9       30.02R FOG
CURRITUCK*     CLOUDY    53  51  94 CALM      30.00R
KILL DEVIL HLS FOG       54  54 100 NE5       29.95S VSB<1/4
MANTEO         CLOUDY    51  51  99 CALM      29.96S FOG
CAPE HATTERAS  CLOUDY    51  51 100 NW3       29.95F FOG
TARBORO*       CLOUDY    42  40  95 N6        30.07F FOG
GOLDSBORO      CLOUDY    42  41  99 N8        30.03S FOG
WASHINGTON     CLOUDY    45  44  97 NW5       30.04S FOG
GREENVILLE     CLOUDY    43  43 100 NW5       30.07S FOG
NEW BERN       CLOUDY    48  45  89 NW10      30.03F FOG
WILMINGTON     CLOUDY    46  45  96 N5        30.02R
$$

VAZ048-230100-
ELSEWHERE

CITY           SKY/WX    TMP DP  RH WIND       PRES   REMARKS
HARRISBURG PA  LGT RAIN  33  31  92 NW8       30.17F FOG
BALTIMORE      LGT RAIN  36  34  93 NW5       30.15F FOG
ANNAPOLIS      CLOUDY    37  34  89 N6        30.15F FOG
ANDREWS AFB    CLOUDY    36  34  93 N7        30.13F FOG
PHILADELPHIA   CLOUDY    41  37  86 NE8       30.19S FOG
HENDERSON NC   CLOUDY    36  35  95 N7        30.08S FOG
GREENSBORO     CLOUDY    35  34  96 NE10G16   30.07R FOG
ROCKY MOUNT    CLOUDY    41  39  93 N8        30.06F FOG
$$

VAZ100-230100-
MARINE

STATION/POSITION TIME  TEMP    WIND        PRES    WAVE   SWELL
                       AIR SEA DIR/SP/G            HT/PER HT/PER
                 (UTC) (F)     (DEG/KT/KT) (MB)    (FT/S) (FT/S)
CAPE MAY NJ      0000   44 44   60/  8/ 12 1019.9R
LEWES DE         0000   44 41   70/ 12/ 14 1020.2R
15NM E FENWICK I 0000   49 45              1019.1R   4/ 4
OCEAN-CITY-INLET 0000   47 43   40/  4/  9 1018.9F
WACHAPREAGUE VA  0000   49 42   40/ 14/ 17 1017.7F
THOMAS POINT MD  0000   37 41  360/ 13/ 14 1021.6F
GOOSES REEF MD   0000   38     VRB 16/ 17  1019.2F
COVE POINT MD    0000   38      20/ 14/ 17 1019.9S
SOLOMONS ISLAND  0000      42                N/A
BISHOPS HEAD MD  0000   40 38   10/  8/ 10 1018.6S
PINEY POINT MD   0000          360/ 11/ 11   N/A
POTOMAC MD       0000   41      10/ 10/ 12 1018.8R
CAMBRIDGE MD     0000   39 40   10/  6/  8 1019.8R
LEWISETTA VA     0000   40 41  360/  9/ 13 1019.4F
RAPPAHANNOCK LGT 0000           10/ 15/ 16 1018.3F
STINGRAY PT      0000   42      10/ 17/ 19 1018.8R
YORK RVR RNG VA  0000   44     360/ 16/ 18 1017.2R
YORKTOWN VA      0000          340/ 10/ 11 1018.2R
JAMESTOWN VA     0000   40     360/  8/ 12   N/A
DOMINION TERM VA 0000   46     360/  2/  7 1017.4R
KIPTOPEKE VA     0000      48   50/  7/ 13   N/A
CHES BAY BRIDGE  0000   47 45  350/ 13/ 15 1016.2R
CAPE HENRY VA    0000   48      20/ 14/ 17 1015.0S
CHESAPEAKE LGHT  2300   54      90/ 36/ 39 1014.2F
WILLOUBY STN VA  0000   46     360/ 15/ 16 1017.7R
S CRANEY ISL VA  0000          350/ 10/ 13 1017.2R
CAPE HENRY BUOY  0000      48                N/A     9/ 8
1ST LANDING BUOY 0000   48      20/ 14/ 16 1015.8S
CAPE CHARLES BUO 0000      47                N/A     8/ 8   5/ 8
64NM E OF VA BCH 0000   60 55   90/  8/ 10 1014.7R  11/ 8  11/ 8
DUCK PIER NC     0000   52 46   60/ 14/ 16 1013.8R
44100 DUCK FRF   0000      51                N/A     9/ 8   2/11
44056 DUCK FRF   0000      47                N/A     8/ 9   2/11
OREGON INLET NC  0000   52 49   CALM  /  4 1014.3R
HATTERAS NC      0000   52 54  310/  3/  4 1014.5R
DIAMOND SHLS NC  0000   61                 1014.1S   7/ 9
CAPE LOOKOUT NC  2300   51     340/  4/  5 1014.8F
$$


USA.gov is the U.S. government's official web portal to all federal, state and local government web resources and services.